Weather History for Adrian, MI

Change the Weather History Date:

Tuesday, August 21, 2012

  Actual Average Record
Temperature  
Mean Temperature 66 °F -  
Max Temperature 80 °F 80 °F 97 °F (1955)
Min Temperature 52 °F 55 °F 40 °F (1950)
Growing Degree Days 16 (Base 50)    
Moisture  
Dew Point 53 °F    
Average Humidity 68    
Maximum Humidity 93    
Minimum Humidity 31    
Precipitation  
Precipitation 0.00 in - - ()
Sea Level Pressure  
Sea Level Pressure 30.06 in    
Wind  
Wind Speed 3 mph (NNW)    
Max Wind Speed 9 mph    
Max Gust Speed -    
Visibility 8 miles    
Events      
Averages and records for this station are not official NWS values.
T = Trace of Precipitation, MM = Missing Value Source: NWS Daily Summary

Daily Weather History Graph

Daily Weather History Graph

Search for Another Location

Airport:

Trip Planner

Search our weather history database for the weather conditions in past years. The results will help you decide how hot, cold, wet, or windy it might be!

Date:

Astronomy

Aug. 21, 2012 Rise Set
Actual Time 6:51 AM EDT 8:26 PM EDT
Civil Twilight 6:21 AM EDT 8:56 PM EDT
Nautical Twilight 5:46 AM EDT 9:31 PM EDT
Astronomical Twilight 5:08 AM EDT 10:09 PM EDT
Moon 11:26 AM EDT 10:20 PM EDT
Length of Visible Light 14h 34m
Length of Day
13h 35m
Waxing Crescent, 19% of the Moon is Illuminated
Aug 21
Waxing Crescent
Aug 24
First Quarter
Aug 31
Full
Sep 8
Last Quarter
Sep 15
New

Hourly Weather History & Observations

Time (EDT) Temp. Dew Point Humidity Pressure Visibility Wind Dir Wind Speed Gust Speed Precip Events Conditions
12:53 AM 61.0 °F 55.0 °F 81% 30.01 in 10.0 mi South 3.5 mph - N/A   Partly Cloudy
1:53 AM 59.0 °F 55.0 °F 87% 30.02 in 10.0 mi Calm Calm - N/A   Clear
2:53 AM 57.0 °F 54.0 °F 89% 30.01 in 10.0 mi Calm Calm - N/A   Clear
3:53 AM 57.0 °F 55.0 °F 93% 30.02 in 8.0 mi Calm Calm - N/A   Clear
4:53 AM 55.0 °F 53.1 °F 93% 30.03 in 4.0 mi Calm Calm - N/A   Clear
5:53 AM 53.1 °F 51.1 °F 93% 30.03 in 5.0 mi Calm Calm - N/A   Clear
6:53 AM 52.0 °F 50.0 °F 93% 30.04 in 3.0 mi NNE 3.5 mph - N/A   Clear
7:53 AM 55.0 °F 53.1 °F 93% 30.06 in 4.0 mi SW 3.5 mph - N/A   Clear
8:53 AM 59.0 °F 55.9 °F 90% 30.08 in 4.0 mi SW 4.6 mph - N/A   Clear
9:53 AM 64.0 °F 57.9 °F 80% 30.08 in 7.0 mi SW 3.5 mph - N/A   Clear
10:53 AM 68.0 °F 57.9 °F 70% 30.08 in 10.0 mi South 3.5 mph - N/A   Clear
11:53 AM 72.0 °F 55.9 °F 57% 30.08 in 10.0 mi Calm Calm - N/A   Clear
12:53 PM 75.9 °F 55.0 °F 48% 30.07 in 10.0 mi Variable 3.5 mph - N/A   Scattered Clouds
1:53 PM 75.0 °F 53.1 °F 46% 30.07 in 10.0 mi Calm Calm - N/A   Mostly Cloudy
2:53 PM 78.1 °F 51.1 °F 39% 30.06 in 10.0 mi ESE 4.6 mph - N/A   Partly Cloudy
3:53 PM 79.0 °F 46.0 °F 31% 30.05 in 10.0 mi NW 6.9 mph - N/A   Mostly Cloudy
4:53 PM 79.0 °F 48.9 °F 35% 30.04 in 10.0 mi North 8.1 mph - N/A   Mostly Cloudy
5:53 PM 79.0 °F 48.0 °F 34% 30.05 in 10.0 mi North 6.9 mph - N/A   Mostly Cloudy
6:53 PM 77.0 °F 48.9 °F 37% 30.06 in 10.0 mi NNE 9.2 mph - N/A   Partly Cloudy
7:53 PM 75.0 °F 50.0 °F 41% 30.07 in 10.0 mi North 4.6 mph - N/A   Clear
8:53 PM 68.0 °F 54.0 °F 61% 30.10 in 10.0 mi ESE 3.5 mph - N/A   Clear
9:53 PM 64.9 °F 57.0 °F 75% 30.11 in 10.0 mi Calm Calm - N/A   Clear
10:53 PM 61.0 °F 57.0 °F 87% 30.12 in 10.0 mi Calm Calm - N/A   Clear
11:53 PM 59.0 °F 55.0 °F 87% 30.12 in 10.0 mi Calm Calm - N/A   Clear